sat.trackr.live / text

‹ back to catalog

FGRST (GLAST)

NORAD 33053 · 2008-029A

PAYLOAD INACTIVE UNKNOWN

§ Identity

Operator
Country
US
Launch date
2008-06-11
Launch site
AFETR
Launch vehicle
Mass (kg)
RCS (m²)
4.93

Purposes: science

External: N2YO · Heavens-Above · Gunter

§ Orbital elements

Epoch: 2026-09-03T17:28:08.942592Z

Period
94.47 min
Inclination
25.5833°
Eccentricity
0.0008111
Mean motion
15.24300081 rev/d
Perigee alt
487.3 km
Apogee alt
498.5 km
Semi-major
6,871.0 km
B*
8.3894e-5
RAAN
18.9831°
Arg perigee
170.3923°
Mean anomaly
189.6771°
Rev number
768

§ Raw data

FGRST (GLAST)1 33053U 08029A   26246.72788128  .00002448  00000+0  83894-4 0  99992 33053  25.5833  18.9831 0008111 170.3923 189.6771 15.24300081  7682

JSON: /api/v1/satellites/33053 · /tle

For live sub-satellite position, see the globe view (requires WebGL).

§ Visibility from observer

Set your observer location to see the next 7 days of passes ≥ 10°. The values pass through the URL so the page stays shareable.

No JS? Fill the form by hand. The geolocation button needs JavaScript.